KUIPER-00149

导读 | 豆包AI

KUIPER-00149是美国亚马逊“柯伊伯(Kuiper)计划”的低轨互联网卫星,于2025年10月14日发射入轨。该计划旨在近地轨道部署超过3200颗卫星,目标是在全球范围内提供宽带互联网接入服务,与SpaceX的“星链”项目形成竞争,亚马逊已为此计划投资百亿美元,并完成多次批量发射任务。

Basic Information
目录编号:
65968
目录名称:
KUIPER-00149
国际标识:
2025-228X
轨道中心:
EARTH
卫星名称:
KUIPER-00149
卫星全名:
KUIPER-00149
卫星状态:
在轨 (已飞行223 天)
发射日期:
2025-10-14 UTC
国别 :
美国 (US)
星等 :
--
Orbit Information
数据来源 国际轨道数据
星历时间: 2026-05-24T05:56:18+0800
1天前
查看轨道信息
半长轴: 7007.677km
偏心率: 0.0000886
轨道倾角: 51.902°
近地点辐角 111.218°
升交点赤经 5.467°
平近点角 248.887°
近地点: 628.919km
远地点: 630.161km
周期: 97.302分钟
每日圈数: 14.799318
Detailed Information
使用方式:
暂无
2D Orbit Map
3D Orbit Map
Orbit Altitude Analysis Chart
Orbit Inclination Analysis Chart
Orbit Comprehensive Analysis Chart
View Comprehensive Chart